User: anonymous   Login
Location: Unspecified
(0.0000°N, 0.0000°E)
Time: 08:52:33
(UTC+00:00)
Language:

ARKYD 6A - Orbit

View from above orbital plane
View from above orbital plane
View from above satellite
View from above satellite

Ground track
Ground track

The orbit data is extracted from the following two-line orbital elements,

1 43130U 18004V   19345.66893820 +.00000794 +00000-0 +36181-4 0  9991
2 43130 097.4702 052.7460 0009762 007.0532 353.0840 15.23555317106284
Epoch (UTC): 11 December 2019 16:03:16
Eccentricity: 0.0009762
inclination: 97.4702°
perigee height: 488 km
apogee height: 502 km
right ascension of ascending node: 52.7460°
argument of perigee: 7.0532°
revolutions per day: 15.23555317
mean anomaly at epoch: 353.0840°
orbit number at epoch: 10628

The dashed part of the orbit path shows where the satellite is in the earth's shadow,  

DLR